Temp
83 87 91 77 64 69 61 70 74 71 78 87 82 80 76 75 73 62 83 85 86 86 85 84 82 83 83 82 83 83 83 83 83 84 84 84 84 84 84 84 84 84 84 84 84 84 84 84 84
92 91 82 68 59 57 67 74 71 81 83 87 84 82 81 72 81 79 79 87 90 89 88 86 82 83 83 83 83 83 84 84 84 84 84 84 84 84 84 84 84 84 84 84 84 84 84 84 84
95 95 77 72 69 57 70 75 78 84 88 86 75 82 84 76 82 82 87 91 91 89 88 84 82 83 83 83 83 84 84 84 84 84 84 84 84 85 85 85 85 85 85 85 85 85 85 84 84
90 73 81 68 68 79 80 87 90 85 86 90 86 80 88 92 88 91 92 92 93 91 89 84 83 83 83 83 83 84 84 84 84 84 85 85 85 85 85 85 85 85 85 85 85 85 85 85 84
84 77 72 81 82 82 91 91 88 86 86 86 88 78 80 91 95 94 93 94 91 91 88 86 83 83 83 83 84 84 84 84 84 84 85 85 85 85 85 85 85 85 85 85 85 86 85 84 84
76 80 71 79 82 89 92 94 90 87 86 87 84 79 79 94 92 93 93 91 93 92 90 86 84 83 83 84 84 84 84 84 84 84 85 85 86 86 86 86 86 86 86 86 86 85 85 84 84
66 73 81 83 84 86 91 98 91 90 86 86 88 77 84 90 94 94 93 94 94 94 90 87 86 84 84 84 84 84 84 84 84 85 85 85 85 86 86 86 86 86 86 86 85 85 85 84 84
78 85 77 87 83 83 93 96 97 94 85 97 90 79 78 90 94 95 95 90 92 94 91 88 87 86 85 85 84 84 84 84 85 85 85 85 85 86 86 86 85 85 85 85 85 85 85 84 84
102 83 77 83 85 88 96 92 99 100 94 93 92 91 92 96 94 90 89 89 87 91 91 92 90 87 85 86 86 84 84 85 85 85 85 85 86 87 87 86 85 86 86 85 85 86 85 85 84
92 74 80 82 91 91 96 94 94 92 91 92 91 95 96 96 91 88 87 87 88 88 91 90 89 89 88 91 84 85 87 87 86 87 85 85 76 84 89 87 86 86 85 80 84 84 85 83 87
88 74 88 91 95 94 95 94 97 91 87 91 86 89 93 94 89 86 89 89 90 91 92 91 90 88 90 85 86 87 88 88 88 87 84 87 82 88 76 77 76 77 79 74 82 84 81 84 87
92 94 95 97 99 96 95 98 94 94 92 97 95 93 93 93 92 91 89 92 92 90 91 91 91 86 86 86 88 89 90 90 90 89 88 87 87 84 78 74 77 75 77 75 81 81 86 86 83
95 95 100 102 101 100 98 95 94 95 99 100 97 93 91 93 94 95 96 97 95 92 92 90 89 85 86 86 88 86 89 90 88 87 88 88 87 82 76 84 86 81 78 86 84 83 84 84 84
99 99 99 102 101 101 95 95 96 96 100 97 95 92 92 93 95 95 96 95 94 93 92 91 89 87 84 86 88 88 87 88 89 87 87 88 88 84 86 86 84 82 82 86 83 83 83 83 84
99 93 97 98 99 98 100 90 91 97 99 95 93 92 93 93 95 94 96 95 96 95 94 91 90 89 87 88 88 89 86 92 88 88 85 87 86 87 86 84 83 82 82 85 81 82 81 79 84
92 93 85 96 98 99 96 80 94 98 96 93 93 92 92 93 95 96 97 97 96 94 91 91 96 90 87 87 87 88 88 85 84 90 84 88 88 87 86 83 76 80 80 81 79 81 81 78 81
88 80 84 89 99 96 93 80 87 99 96 93 92 92 93 93 94 95 97 97 96 94 90 90 92 90 87 86 87 87 86 84 83 86 87 83 82 86 83 85 79 83 83 83 82 81 78 79 80
79 82 86 86 93 95 81 72 78 89 93 93 93 93 92 92 94 95 97 97 97 94 91 89 91 90 86 86 84 87 88 84 84 88 83 81 83 85 82 85 85 85 84 79 80 77 79 79 78
88 87 86 91 94 92 79 67 65 81 89 94 93 93 93 93 96 97 97 98 96 93 90 88 87 87 88 86 84 85 84 84 87 86 87 84 87 87 86 84 83 82 81 78 80 81 78 79 79
87 85 86 92 93 92 88 73 75 84 91 95 94 94 94 95 96 95 95 97 96 92 89 87 86 86 86 86 84 85 85 86 85 87 84 86 86 85 84 82 81 81 81 80 79 79 76 77 79
85 84 85 87 92 94 90 85 84 92 96 97 98 98 97 96 95 93 94 94 95 91 88 87 85 85 85 86 84 82 80 85 83 86 85 86 86 84 80 83 83 82 82 79 79 79 79 74 77
80 91 90 89 85 77 89 71 76 84 90 93 96 97 97 97 97 96 95 93 95 92 91 88 86 85 86 85 84 82 83 82 85 83 86 86 86 86 86 84 83 81 80 79 79 80 77 77 73
85 93 90 89 84 82 82 77 82 87 85 90 95 97 99 99 99 97 95 94 95 95 92 89 86 85 85 84 84 83 83 85 86 87 87 82 82 85 85 84 83 80 80 80 80 78 77 77 75
95 90 89 89 86 73 80 77 78 84 83 88 95 98 99 100 100 98 98 96 94 96 93 90 85 84 85 84 83 83 81 82 85 85 84 85 85 85 86 84 81 80 80 79 79 79 80 77 76
90 84 72 70 72 71 85 78 79 90 92 94 80 86 100 101 101 98 97 94 93 92 91 90 86 83 84 85 83 83 83 82 83 85 85 84 84 84 82 82 80 80 80 81 79 77 78 77 76
85 84 75 61 67 73 85 77 84 93 96 94 87 80 102 102 103 101 98 96 92 92 91 90 86 83 85 85 83 83 84 86 86 86 86 86 85 86 82 82 81 81 79 79 78 78 77 77 76
84 79 89 78 81 75 81 85 94 97 92 93 97 102 102 102 102 101 99 98 94 92 91 89 86 85 85 86 84 83 83 84 86 85 85 87 84 88 82 82 81 81 79 79 78 77 75 78 77
88 91 77 79 64 63 75 77 80 88 89 94 94 97 102 104 102 102 101 99 97 96 94 92 89 86 86 86 86 86 85 84 85 84 84 84 85 85 82 82 82 80 79 77 76 75 77 75 76
83 81 82 84 79 70 68 75 93 89 92 91 94 99 102 103 103 103 102 101 98 97 94 93 91 87 86 86 86 86 86 86 85 85 85 84 84 83 82 81 80 80 79 78 76 75 76 75 74
89 83 82 73 69 78 76 78 98 95 97 98 98 100 102 101 102 104 104 102 99 96 95 94 93 91 89 87 86 86 86 86 85 84 85 85 84 84 82 82 80 80 78 78 75 75 77 76 74
MSLP
1008.04 1008.47 1007.91 1009.29 1009.23 1007.28 1006.24 1005.57 1004.57 1003.96 1004.18 1004.21 1005.04 1005.79 1007.01 1007.77 1007.87 1010.58 1011.78 1012.32 1012.67 1013.24 1013.86 1014.27 1014.55 1014.69 1014.93 1015.19 1015.42 1015.68 1015.99 1016.10 1016.24 1016.33 1016.63 1016.77 1016.88 1016.88 1016.96 1017.07 1017.16 1017.29 1017.36 1017.33 1017.26 1017.23 1017.23 1017.15 1017.15
1007.17 1007.50 1007.89 1006.70 1008.14 1006.25 1005.37 1005.07 1004.21 1003.35 1003.94 1004.42 1005.32 1005.92 1006.21 1007.86 1008.49 1010.03 1011.41 1011.92 1012.16 1012.82 1013.47 1014.13 1014.70 1014.86 1015.09 1015.39 1015.62 1015.89 1016.16 1016.41 1016.58 1016.69 1016.90 1016.94 1016.97 1017.04 1017.14 1017.27 1017.29 1017.36 1017.41 1017.33 1017.31 1017.29 1017.28 1017.15 1017.12
1006.04 1006.21 1006.45 1005.24 1004.78 1005.07 1003.30 1003.81 1003.20 1002.86 1003.24 1004.08 1005.72 1006.30 1006.06 1008.03 1009.24 1010.04 1011.21 1011.43 1011.81 1012.47 1013.38 1014.40 1014.79 1015.07 1015.29 1015.57 1015.84 1016.16 1016.49 1016.66 1016.79 1016.88 1017.00 1017.02 1017.00 1017.10 1017.20 1017.33 1017.41 1017.44 1017.40 1017.32 1017.26 1017.26 1017.26 1017.16 1017.08
1006.38 1007.30 1005.86 1003.43 1002.60 1001.90 1001.51 1001.66 1001.30 1001.85 1003.19 1003.84 1004.86 1005.59 1006.37 1007.34 1008.35 1009.57 1010.55 1011.36 1011.73 1012.47 1013.57 1014.62 1014.84 1015.16 1015.46 1015.78 1016.10 1016.41 1016.64 1016.75 1016.88 1016.98 1017.01 1016.99 1017.04 1017.16 1017.32 1017.46 1017.55 1017.56 1017.47 1017.39 1017.30 1017.21 1017.14 1017.04 1017.04
1005.90 1004.91 1003.24 1000.53 1000.48 1000.74 1000.32 1000.55 1000.88 1001.09 1002.53 1003.86 1004.95 1006.05 1007.05 1007.73 1008.57 1009.64 1010.58 1011.29 1011.94 1012.57 1013.67 1014.45 1014.97 1015.31 1015.64 1015.88 1016.15 1016.49 1016.67 1016.81 1016.96 1016.99 1017.02 1017.07 1017.16 1017.28 1017.37 1017.54 1017.66 1017.67 1017.58 1017.45 1017.36 1017.26 1017.09 1016.94 1016.86
1003.98 1001.86 1001.07 999.67 999.66 999.21 999.08 999.50 1000.35 1001.15 1003.12 1004.00 1005.18 1006.51 1007.55 1008.07 1008.86 1009.84 1010.86 1011.25 1011.71 1012.39 1013.33 1014.34 1015.05 1015.44 1015.75 1015.98 1016.21 1016.50 1016.68 1016.83 1016.91 1016.99 1017.02 1017.11 1017.21 1017.31 1017.53 1017.70 1017.68 1017.56 1017.56 1017.44 1017.35 1017.32 1017.25 1017.06 1016.95
1004.74 1003.09 1000.55 999.44 998.73 998.51 998.56 998.77 999.41 1000.56 1002.44 1003.43 1005.06 1006.46 1007.48 1008.11 1008.84 1009.66 1010.72 1010.93 1011.49 1011.92 1013.14 1014.18 1014.84 1015.40 1015.76 1016.04 1016.35 1016.54 1016.66 1016.77 1016.87 1016.93 1017.01 1017.10 1017.24 1017.39 1017.57 1017.65 1017.60 1017.57 1017.51 1017.44 1017.34 1017.22 1017.14 1017.05 1016.91
1003.66 1002.45 1001.81 999.09 998.39 998.72 999.00 998.92 999.40 1000.13 1002.02 1002.99 1004.64 1005.90 1007.10 1007.83 1008.83 1009.63 1010.53 1011.51 1011.53 1011.82 1012.79 1013.66 1014.48 1015.10 1015.57 1016.04 1016.31 1016.48 1016.58 1016.76 1016.83 1016.86 1016.93 1017.02 1017.19 1017.36 1017.55 1017.49 1017.55 1017.50 1017.35 1017.30 1017.26 1017.17 1016.97 1016.89 1016.83
1000.14 1000.85 1000.47 999.47 998.33 998.51 998.71 999.21 999.49 1000.46 1001.48 1002.91 1003.85 1004.89 1006.56 1007.44 1008.91 1009.90 1010.76 1011.52 1011.72 1011.93 1012.51 1013.04 1013.78 1014.59 1015.13 1015.64 1016.15 1016.42 1016.59 1016.70 1016.75 1016.82 1016.83 1016.86 1016.87 1017.11 1017.45 1017.59 1017.43 1016.97 1016.94 1017.18 1017.16 1017.13 1017.35 1017.35 1016.96
999.74 1001.40 1000.59 1001.05 998.67 997.98 998.23 999.00 999.99 1000.78 1001.69 1002.22 1003.59 1004.74 1006.07 1007.25 1008.60 1009.71 1010.38 1011.05 1011.49 1011.74 1012.08 1012.87 1013.51 1014.03 1014.59 1014.81 1015.90 1016.19 1016.32 1016.40 1016.46 1016.39 1016.41 1016.53 1017.35 1017.43 1017.35 1017.51 1016.91 1017.19 1018.14 1016.95 1016.79 1017.58 1017.71 1016.87 1016.66
999.79 1000.69 999.54 998.25 998.35 998.27 998.18 998.64 999.60 1000.52 1001.43 1002.36 1003.80 1004.99 1006.04 1006.86 1008.19 1009.61 1009.92 1010.60 1010.91 1011.51 1011.59 1012.58 1013.20 1013.72 1013.89 1014.66 1015.39 1015.57 1015.67 1015.71 1015.84 1015.94 1016.03 1016.02 1016.59 1016.60 1017.25 1017.38 1016.91 1018.98 1017.85 1018.26 1016.88 1017.29 1017.34 1017.07 1016.37
997.31 997.85 997.32 997.66 997.16 997.43 997.36 998.05 999.02 999.88 1000.77 1002.08 1003.40 1004.91 1005.92 1006.31 1007.20 1008.11 1009.14 1009.23 1009.98 1010.80 1011.71 1012.62 1013.00 1013.67 1014.13 1014.18 1014.59 1014.61 1014.73 1014.85 1015.01 1015.24 1015.51 1015.77 1016.10 1016.74 1017.52 1018.34 1017.52 1017.95 1018.70 1017.62 1017.00 1017.15 1016.72 1016.62 1016.81
996.57 996.63 996.07 995.95 996.16 996.54 997.56 997.69 998.54 999.60 1000.46 1001.81 1003.24 1004.88 1005.74 1006.07 1006.56 1007.37 1007.85 1008.35 1009.25 1010.31 1011.26 1012.25 1012.84 1013.49 1013.92 1013.99 1013.86 1014.08 1014.10 1014.17 1014.47 1014.83 1015.24 1015.44 1015.74 1016.58 1016.96 1016.93 1016.49 1016.45 1016.53 1016.07 1016.60 1016.80 1016.86 1016.82 1016.76
996.00 995.80 995.72 995.48 995.56 995.98 996.84 997.23 998.29 999.51 1000.35 1001.60 1003.10 1004.47 1005.38 1005.86 1006.14 1006.65 1007.19 1007.82 1008.79 1009.80 1010.63 1011.64 1012.59 1013.10 1013.61 1013.83 1013.92 1013.93 1013.88 1014.21 1014.25 1014.51 1015.14 1015.32 1015.57 1015.95 1016.02 1016.07 1016.21 1016.26 1016.46 1016.47 1016.70 1016.88 1016.97 1016.91 1016.70
996.21 995.49 995.09 995.38 995.46 995.50 996.47 997.55 998.02 999.29 1000.36 1001.51 1002.89 1004.07 1004.89 1005.43 1005.90 1006.28 1006.83 1007.49 1008.32 1009.20 1009.97 1011.04 1011.89 1012.70 1013.31 1013.73 1013.75 1013.87 1014.02 1014.08 1014.54 1014.41 1014.82 1015.24 1015.48 1015.60 1015.93 1016.14 1016.38 1016.52 1016.43 1016.46 1016.86 1016.99 1017.29 1017.10 1016.73
996.41 995.66 995.01 994.59 994.95 995.52 996.88 997.32 998.07 999.29 1000.33 1001.38 1002.50 1003.54 1004.32 1004.90 1005.41 1006.07 1006.66 1007.25 1008.06 1008.85 1009.72 1010.53 1011.12 1012.20 1013.02 1013.57 1013.72 1013.89 1013.98 1014.27 1014.39 1014.28 1014.60 1014.99 1015.32 1015.71 1016.03 1016.15 1016.69 1016.69 1016.44 1016.75 1016.86 1017.08 1017.30 1017.17 1016.75
996.30 995.17 994.64 994.00 994.56 995.63 997.19 998.84 999.49 999.34 1000.16 1001.03 1001.93 1002.84 1003.58 1004.38 1004.92 1005.65 1006.33 1007.07 1007.72 1008.62 1009.51 1010.32 1010.92 1011.62 1012.45 1013.07 1013.62 1013.96 1014.01 1014.24 1014.37 1014.45 1014.85 1014.82 1015.44 1015.82 1016.16 1016.01 1016.44 1016.41 1016.23 1016.51 1016.86 1017.20 1017.36 1017.24 1016.91
995.67 994.72 993.97 993.54 994.57 995.38 997.78 999.96 1000.70 1000.25 1000.45 1000.47 1001.20 1002.00 1002.85 1003.54 1004.16 1004.95 1005.80 1006.68 1007.42 1008.28 1009.25 1010.08 1010.70 1011.14 1011.92 1012.75 1013.30 1013.61 1013.68 1013.94 1014.09 1014.23 1014.97 1014.99 1015.36 1015.26 1015.94 1015.88 1015.91 1016.05 1016.27 1016.66 1017.01 1017.33 1017.36 1017.20 1017.13
995.29 994.11 993.30 992.87 994.17 995.28 997.39 999.97 1001.92 1000.49 1000.29 999.63 1000.23 1001.00 1001.83 1002.61 1003.44 1004.21 1005.23 1006.06 1007.03 1007.91 1008.84 1009.70 1010.42 1010.90 1011.64 1012.31 1012.97 1013.21 1013.46 1013.67 1013.96 1013.92 1014.11 1014.47 1014.87 1015.16 1015.52 1015.76 1015.97 1016.07 1016.49 1016.79 1016.96 1017.19 1017.29 1017.16 1017.07
995.21 993.92 992.79 992.36 993.49 995.23 996.09 998.74 998.58 999.45 998.69 998.23 998.97 999.92 1000.65 1001.55 1002.40 1003.47 1004.47 1005.34 1006.26 1007.24 1008.24 1009.24 1009.97 1010.67 1011.30 1011.92 1012.55 1013.18 1013.23 1013.16 1013.34 1013.20 1013.71 1013.99 1014.49 1014.90 1015.43 1015.74 1015.97 1016.04 1016.33 1016.51 1016.97 1017.33 1017.49 1017.27 1017.07
994.55 993.59 992.71 992.28 992.91 993.91 994.88 995.99 997.10 996.45 996.90 997.11 997.52 998.50 999.54 1000.35 1001.28 1002.42 1003.56 1004.62 1005.46 1006.44 1007.51 1008.45 1009.48 1010.30 1011.00 1011.60 1012.44 1013.08 1013.32 1012.97 1013.12 1013.10 1013.43 1013.63 1013.98 1014.61 1015.29 1015.53 1015.79 1016.08 1016.23 1016.55 1017.01 1017.27 1017.39 1017.53 1017.42
993.45 993.30 992.73 992.18 992.30 993.44 994.67 995.28 995.86 996.83 995.75 996.19 996.21 997.02 997.94 999.09 1000.19 1001.25 1002.39 1003.61 1004.63 1005.60 1006.74 1007.87 1008.85 1009.75 1010.57 1011.28 1011.93 1012.37 1012.67 1012.64 1012.55 1012.68 1012.94 1013.27 1013.63 1014.09 1014.43 1015.04 1015.39 1015.76 1016.26 1016.52 1016.80 1017.08 1017.44 1017.47 1017.62
992.67 992.79 992.47 992.33 992.39 993.76 993.78 994.38 994.14 994.66 994.60 994.88 995.33 995.70 996.36 997.50 998.80 1000.01 1001.22 1002.43 1003.72 1004.78 1005.91 1007.02 1008.12 1009.11 1009.86 1010.70 1011.34 1011.78 1012.06 1012.29 1012.16 1012.15 1012.31 1012.90 1013.50 1013.76 1014.13 1014.60 1015.11 1015.89 1016.23 1016.37 1016.72 1017.05 1017.36 1017.55 1017.49
992.85 992.64 992.36 992.21 992.16 991.85 992.34 993.28 992.81 993.09 993.12 994.50 994.15 994.83 995.26 995.96 997.21 998.62 1000.00 1001.39 1002.65 1003.80 1004.93 1006.16 1007.34 1008.47 1009.22 1010.04 1010.80 1011.24 1011.65 1011.83 1011.84 1011.90 1012.30 1012.62 1013.24 1013.42 1013.72 1014.29 1014.92 1015.39 1015.94 1016.20 1016.54 1016.93 1017.26 1017.50 1017.58
992.35 992.47 992.06 991.73 991.12 990.74 991.25 991.84 991.35 991.63 992.59 992.68 994.72 994.53 994.22 994.88 995.92 997.35 998.66 1000.03 1001.32 1002.55 1003.78 1005.12 1006.37 1007.58 1008.54 1009.29 1010.16 1010.67 1011.06 1011.38 1011.60 1011.59 1011.61 1012.02 1012.54 1013.05 1013.65 1014.21 1014.84 1015.39 1015.67 1015.78 1016.18 1016.70 1017.12 1017.51 1017.63
991.43 991.52 991.05 990.91 990.68 990.70 990.44 989.50 989.46 990.73 991.42 992.41 993.13 994.69 992.85 993.36 994.41 995.89 997.30 998.69 1000.19 1001.54 1002.92 1004.14 1005.42 1006.62 1007.61 1008.53 1009.42 1010.05 1010.53 1010.75 1011.00 1011.12 1011.03 1011.44 1011.86 1012.24 1012.97 1013.55 1014.21 1014.75 1015.30 1015.39 1015.46 1015.93 1016.19 1016.40 1017.32
990.44 990.60 991.11 991.23 990.88 990.13 989.18 988.90 988.76 989.13 990.43 990.97 991.64 991.46 991.66 992.09 993.13 994.50 996.10 997.57 999.18 1000.64 1001.83 1003.14 1004.38 1005.69 1006.75 1007.62 1008.49 1009.20 1009.70 1010.06 1010.20 1010.40 1010.74 1011.09 1011.46 1011.80 1012.53 1013.09 1013.85 1014.43 1015.09 1015.53 1016.15 1016.39 1016.46 1016.60 1016.84
989.70 990.57 990.93 990.73 990.15 989.28 988.96 988.18 987.64 988.32 989.18 990.21 990.54 990.97 991.02 991.39 992.12 993.39 994.86 996.45 997.99 999.65 1001.02 1002.32 1003.57 1004.66 1005.86 1006.84 1007.56 1008.20 1008.77 1009.25 1009.55 1009.86 1010.22 1010.63 1011.01 1011.48 1012.20 1012.83 1013.44 1014.08 1014.66 1014.78 1015.41 1015.97 1016.03 1015.85 1016.15
989.87 989.86 990.01 990.31 990.24 989.06 988.61 987.32 987.17 987.52 988.11 988.89 989.78 990.32 990.43 990.78 991.25 992.29 993.57 995.12 996.95 998.72 1000.11 1001.28 1002.58 1003.83 1004.98 1005.96 1006.64 1007.27 1007.80 1008.36 1008.88 1009.16 1009.63 1009.96 1010.52 1010.86 1011.68 1012.24 1012.87 1013.53 1014.11 1014.62 1015.19 1015.40 1015.57 1015.62 1015.57
988.64 988.74 989.65 989.60 989.33 988.96 988.46 986.80 986.79 986.79 986.93 987.74 988.53 989.28 989.68 990.11 990.47 991.35 992.51 994.12 995.81 997.37 999.03 1000.32 1001.55 1002.70 1003.91 1004.94 1005.73 1006.29 1006.83 1007.52 1008.05 1008.56 1008.83 1009.30 1009.80 1010.39 1010.98 1011.70 1012.33 1012.86 1013.47 1013.93 1014.45 1015.04 1014.91 1015.12 1015.47
Wind_Speed
17 16 9 2 4 4 5 6 8 6 12 11 11 13 14 7 6 13 16 16 17 18 15 15 15 16 15 14 15 15 14 14 13 14 14 13 13 13 12 11 10 10 9 10 12 11 11 11 10
16 17 4 9 4 2 6 6 6 16 14 14 19 15 14 20 18 19 15 17 20 18 16 16 15 14 14 13 14 13 13 13 12 13 11 11 12 12 11 10 9 8 8 9 10 10 9 9 8
20 20 5 5 7 3 12 12 16 18 13 14 8 1 7 19 21 19 19 21 19 16 17 14 15 14 14 13 13 12 12 11 11 11 10 10 11 10 10 9 7 6 7 8 8 9 8 8 7
7 3 10 11 17 10 15 14 16 19 19 17 19 18 21 21 25 23 21 20 20 19 18 14 15 14 13 13 13 12 11 11 10 9 9 10 10 9 9 7 5 5 6 7 8 8 8 7 6
5 4 8 7 20 10 14 19 13 13 22 20 25 24 20 22 25 26 23 20 17 16 16 15 14 13 13 13 13 12 11 11 10 9 9 9 8 7 6 5 4 5 5 6 6 6 6 5 3
6 4 12 9 9 11 13 13 13 22 15 25 23 22 16 23 25 21 19 18 17 17 16 14 13 13 13 14 13 11 11 11 9 8 8 7 6 5 5 3 3 3 5 5 6 5 4 3 1
6 10 9 10 9 11 7 13 10 19 26 20 25 19 20 21 20 20 18 10 18 18 17 13 13 12 14 13 13 11 11 9 8 8 7 5 5 6 6 5 3 3 4 5 4 2 2 1 3
11 13 11 2 6 13 6 16 9 13 22 23 17 17 17 20 25 18 18 13 12 18 17 14 13 13 12 12 12 10 8 8 7 7 6 6 7 8 7 7 6 3 0 2 1 3 3 4 6
18 7 6 7 9 13 10 12 13 18 18 20 3 23 26 24 24 15 16 13 6 12 14 15 15 13 12 10 10 9 8 7 6 6 8 8 6 6 6 6 7 7 7 1 5 7 5 6 9
6 6 7 20 6 10 14 15 11 12 13 13 24 23 24 25 23 15 16 13 15 11 17 11 13 13 13 12 10 8 8 7 6 7 7 6 4 6 6 4 4 6 6 2 10 6 7 8 7
14 10 18 21 17 14 8 17 12 17 12 15 27 24 24 25 23 21 18 18 16 15 7 14 11 11 11 12 8 6 6 6 6 7 7 3 4 2 8 2 4 6 5 8 1 3 5 9 5
10 19 20 7 17 15 14 18 12 15 14 20 23 23 22 22 24 21 21 19 20 17 15 15 13 8 3 7 8 9 8 7 7 8 6 1 3 4 6 2 6 5 6 7 3 5 1 2 6
16 22 15 6 9 10 8 16 15 9 20 21 23 24 22 19 19 21 17 17 17 18 16 16 13 9 6 6 4 3 5 4 6 7 8 4 2 4 7 4 0 2 3 4 2 3 4 4 1
17 12 13 12 8 13 17 17 16 13 18 21 23 24 22 21 20 17 17 16 17 16 17 18 16 11 7 5 3 0 0 2 4 3 7 5 1 2 3 0 2 3 2 2 2 3 4 4 5
22 19 9 10 10 9 11 17 13 20 16 20 20 21 22 21 20 16 14 14 15 13 14 19 15 13 9 5 5 3 3 4 7 2 11 8 5 3 3 3 3 1 3 2 4 2 3 5 6
22 20 16 18 18 10 13 11 12 21 16 19 21 20 20 21 22 16 15 14 14 14 12 13 14 16 12 9 4 3 5 3 3 2 3 5 4 4 1 4 3 4 4 2 1 2 1 4 4
21 17 21 21 13 17 14 16 5 14 18 19 19 20 20 18 19 18 18 14 16 12 12 10 10 15 17 10 6 7 7 3 3 1 2 7 5 5 4 4 3 4 2 0 2 4 3 3 4
19 21 19 18 17 18 20 12 13 19 12 18 20 20 19 21 20 20 18 17 15 14 13 12 9 7 13 11 8 8 6 4 2 2 5 7 6 7 5 4 1 2 1 2 3 2 2 3 4
22 20 22 15 10 17 22 14 12 29 25 20 19 19 19 20 19 18 18 18 16 16 15 14 12 8 8 9 8 5 4 5 7 6 6 8 5 4 2 3 2 3 1 4 2 1 4 4 2
27 27 24 14 21 20 20 26 32 31 28 21 22 20 20 20 21 18 20 18 19 16 16 15 14 10 7 6 6 5 6 5 6 5 7 8 8 6 6 5 5 7 3 5 5 2 3 4 3
27 26 23 20 20 22 17 18 23 27 21 18 21 22 20 21 21 21 20 19 18 18 18 16 15 13 11 9 7 5 5 3 4 5 6 7 9 7 7 6 3 4 2 4 4 3 1 3 2
27 25 27 25 14 11 16 12 5 18 21 21 21 21 22 22 21 20 22 21 19 18 17 16 16 15 13 13 11 11 9 6 5 5 6 7 7 6 6 6 6 5 3 5 5 3 2 2 2
25 26 26 24 12 19 20 12 12 26 20 25 22 22 22 23 22 21 23 22 20 18 18 18 18 16 16 14 12 10 8 7 6 4 4 11 8 9 9 8 7 6 2 4 4 4 3 2 3
25 25 25 22 18 17 22 15 21 17 23 19 22 22 21 22 23 23 23 22 20 18 19 18 19 17 16 16 15 11 13 10 8 7 7 7 8 6 5 8 7 6 4 6 4 3 1 1 2
28 23 16 18 17 16 19 21 13 23 23 19 5 22 22 19 21 22 22 23 22 21 20 19 20 19 18 16 17 15 11 13 10 4 5 7 7 7 8 8 8 6 5 5 5 6 2 3 2
25 26 16 21 18 18 22 20 16 23 21 15 24 41 24 25 21 23 24 22 22 23 20 20 21 20 19 18 17 14 14 9 8 8 5 6 5 7 14 11 10 9 9 6 7 6 6 8 4
25 27 26 26 22 18 18 23 22 17 24 20 20 16 18 23 23 23 23 22 21 22 21 20 20 21 20 19 16 16 15 14 11 9 8 5 6 4 14 13 10 9 8 7 5 4 6 3 5
29 16 24 21 25 24 21 21 13 19 19 17 11 13 13 13 21 21 20 22 19 21 20 20 19 21 20 19 17 15 16 15 12 10 10 10 8 8 13 13 11 11 8 8 8 6 6 9 6
18 23 24 20 21 17 17 17 15 17 16 20 21 21 15 11 15 19 21 21 21 20 20 20 20 20 20 19 18 17 16 17 15 12 12 12 10 10 11 12 12 11 10 9 8 7 9 8 7
29 28 27 18 21 19 20 16 16 8 20 16 14 15 12 17 12 16 19 21 22 21 21 21 20 20 20 19 18 19 18 17 17 16 13 13 12 10 10 12 12 13 12 11 11 11 8 8 11
Wind_Direction
156 163 154 135 299 275 17 59 17 23 78 84 82 91 83 53 23 111 134 142 138 127 125 121 121 124 118 116 115 110 108 107 105 98 93 95 95 92 92 91 88 83 82 77 74 69 64 64 66
170 170 154 140 165 332 75 125 161 100 124 93 107 129 82 82 96 117 130 143 138 138 124 124 123 121 121 121 118 119 118 112 108 100 98 97 93 90 91 91 85 78 73 69 67 61 53 54 57
185 187 197 223 107 236 112 193 171 129 162 101 88 283 72 107 128 134 146 146 140 132 113 122 122 120 124 129 127 122 125 123 115 108 107 102 95 93 93 91 83 78 69 62 55 49 45 39 44
187 306 264 234 139 120 127 122 113 139 112 124 129 100 104 122 118 133 136 152 134 128 121 130 128 128 127 130 130 133 136 132 125 122 115 105 99 97 97 96 88 72 59 50 43 37 35 34 20
119 224 238 308 107 127 116 85 46 104 105 104 107 105 103 111 129 121 130 129 133 124 131 132 137 135 132 135 137 138 138 138 140 131 120 109 101 107 110 103 83 63 48 35 27 27 35 35 23
239 243 282 119 96 101 108 117 126 105 116 116 110 102 120 126 120 133 130 145 142 136 137 138 137 137 141 141 135 138 137 144 143 135 126 124 124 131 137 115 78 55 35 17 15 20 29 33 357
313 295 313 280 111 101 94 86 145 114 123 130 109 124 131 132 134 135 140 137 134 140 133 136 140 145 147 146 145 138 140 138 143 144 145 156 173 179 180 147 112 57 35 26 17 8 351 307 252
234 247 293 300 29 117 138 103 119 134 124 129 128 136 133 148 126 132 133 127 186 137 138 148 146 155 157 157 154 143 140 145 154 164 181 203 215 217 204 170 155 133 103 353 325 256 244 241 264
245 314 240 187 90 119 160 111 88 104 131 117 233 145 148 141 122 150 138 139 188 148 138 152 147 153 154 150 163 160 165 167 173 186 211 221 235 195 170 185 157 187 175 229 269 262 277 300 268
122 356 41 254 188 141 151 135 117 131 153 133 132 139 141 147 139 149 146 165 152 156 165 158 141 152 171 161 149 180 180 189 196 194 187 209 132 257 203 104 236 238 97 60 289 304 318 284 262
129 192 251 282 147 187 174 129 153 135 178 132 129 141 151 157 139 151 170 168 163 182 155 136 149 146 187 129 165 184 185 193 198 205 190 231 170 127 108 343 266 44 89 279 42 233 230 260 2
228 180 239 76 163 149 183 138 150 155 166 149 141 149 163 167 160 162 161 182 164 156 143 148 147 168 177 154 175 195 183 191 193 192 176 287 271 82 75 216 196 179 187 231 185 214 309 351 53
234 190 247 196 163 187 197 140 133 132 139 147 143 155 170 174 174 159 186 167 152 150 159 163 156 169 179 197 212 212 174 204 207 146 170 200 244 130 155 220 114 199 287 53 20 17 44 8 219
257 235 247 263 219 177 180 150 141 144 139 149 150 164 173 182 180 170 179 167 155 166 158 155 164 159 166 205 255 235 18 43 330 116 159 173 134 18 351 16 328 301 78 73 52 29 344 322 308
269 277 242 249 262 176 208 154 164 141 156 149 160 170 175 182 185 179 185 166 165 165 161 152 157 162 167 227 176 254 196 187 225 292 143 169 180 191 31 303 237 175 173 98 74 331 9 311 302
265 254 256 230 199 166 202 174 158 147 168 162 165 175 177 184 184 183 186 177 176 167 164 162 179 163 174 202 161 212 254 235 299 264 141 156 147 121 284 276 69 307 71 240 156 223 261 291 284
242 251 231 252 180 151 201 138 353 167 168 170 172 177 179 183 186 180 185 188 174 172 161 172 188 169 171 171 174 224 224 197 200 103 147 149 117 189 224 274 153 215 89 182 45 3 345 323 349
232 229 238 217 202 182 103 88 348 283 232 185 178 178 183 185 192 177 190 185 185 174 167 172 200 185 164 162 184 214 206 182 279 182 194 152 200 173 186 254 85 18 313 24 96 223 321 283 261
247 244 233 228 192 205 141 127 201 250 251 190 179 187 183 188 188 182 189 183 188 174 172 179 190 187 163 164 183 201 238 181 194 206 216 140 141 172 149 273 289 218 246 126 154 19 335 278 42
244 255 254 203 183 219 171 164 170 219 223 185 181 188 190 191 186 189 181 193 187 184 180 179 186 188 181 171 165 196 229 206 201 204 161 160 176 179 176 213 250 185 170 177 95 74 314 309 116
233 244 253 254 183 201 207 211 178 187 183 192 186 185 193 191 196 181 185 192 189 184 180 182 183 185 179 174 167 210 259 244 217 204 154 177 164 178 197 164 245 108 18 90 137 173 197 317 290
226 234 251 263 164 201 230 219 141 258 182 193 186 192 188 192 191 186 184 187 196 187 183 177 178 182 180 190 185 197 206 218 206 186 185 185 161 166 160 184 195 110 40 125 143 163 92 277 331
231 230 238 255 229 202 208 240 219 215 191 185 194 194 195 185 190 194 185 185 193 188 181 179 179 184 185 185 206 189 201 208 247 222 190 140 164 186 182 173 131 123 202 145 113 120 144 316 294
231 241 248 243 253 248 200 204 253 193 190 243 190 197 196 188 187 189 182 182 188 192 181 183 177 185 187 185 195 208 190 218 218 210 146 161 166 175 176 141 136 154 199 144 154 137 168 145 331
230 225 234 237 235 247 228 206 209 202 208 209 101 295 186 192 184 184 183 184 184 189 184 180 178 183 186 188 191 202 206 213 226 247 185 173 181 172 163 157 153 158 187 161 167 151 199 174 240
215 229 228 229 230 241 235 244 221 174 183 168 176 208 190 188 188 184 185 184 185 186 184 182 180 184 186 191 189 196 204 208 219 210 212 184 190 190 165 170 167 165 174 202 168 167 186 165 172
213 225 228 240 241 249 239 223 234 215 172 186 230 228 205 181 186 182 183 186 179 184 185 185 178 182 186 187 188 193 199 203 206 203 211 197 201 163 164 174 168 173 173 180 169 206 188 124 170
230 216 221 235 239 241 245 253 211 225 169 194 215 229 210 226 175 181 181 181 180 181 185 183 183 183 185 186 190 195 194 199 209 198 205 202 191 202 170 174 174 173 183 190 164 190 203 175 175
212 228 236 234 239 248 244 247 235 205 195 177 188 210 219 221 182 183 179 177 177 176 183 187 186 181 184 188 190 194 198 197 204 214 199 194 205 186 168 176 174 181 189 182 182 209 206 199 189
220 214 227 239 231 233 254 252 240 240 207 180 201 208 205 224 207 180 174 174 174 179 182 187 188 187 186 186 190 196 198 199 201 210 217 198 194 184 180 176 182 187 187 183 185 208 217 194 194